User: anonymous   Login
Location: Archemont
(49.1579°N, 1.7598°E)
Time: 14:56:45
(UTC+00:00)
Language:

Iridium 4 - Orbit

View from above orbital plane
View from above orbital plane
View from above satellite
View from above satellite

Ground track
Ground track

The orbit data is extracted from the following two-line orbital elements,

1 24796U 97020E   24053.98839978  .00000633  00000-0  21133-3 0  9996
2 24796  86.3989  15.2433 0002148  82.7418 277.4023 14.36002338403569
Epoch (UTC): 22 February 2024 23:43:17
Eccentricity: 0.0002148
inclination: 86.3989°
perigee height: 770 km
apogee height: 773 km
right ascension of ascending node: 15.2433°
argument of perigee: 82.7418°
revolutions per day: 14.36002338
mean anomaly at epoch: 277.4023°
orbit number at epoch: 40356

The dashed part of the orbit path shows where the satellite is in the earth's shadow,  

DLR